AirNav   Jet Aviation Boston
 
 1669 users online  

71GA Piedmont Newton Hospital Heliport
Covington, Georgia, USA

GOING TO COVINGTON?


FAA INFORMATION EFFECTIVE 29 MARCH 2018

Location

FAA Identifier: 71GA
Lat/Long: 33-36-06.4800N / 083-50-55.2500W
33-36.108000N / 083-50.920833W
33.6018000 / -83.8486806
(estimated)
Elevation: 772 ft. / 235 m (estimated)
Variation: 02W (1985)
From city: 1 mile NE of COVINGTON, GA
Time zone: UTC -4 (UTC -5 during Standard Time)
Zip code: 30014

Heliport Operations

Heliport use: Private use, MEDICAL
Activation date: 02/1988
Control tower: no
ARTCC: ATLANTA CENTER
FSS: MACON FLIGHT SERVICE STATION
Attendance: UNATNDD
Segmented circle: no
Lights: FOR PERIMETER LGTS CALL 404-787-7905.

Heliport Communications

UNICOM: 123.0
WX AWOS-3 at CVC (1.8 nm N): 118.725 (770-385-7057)
WX AWOS-3PT at D73 (13 nm NE): 120.825 (678-635-3668)

Nearby radio navigation aids

VOR radial/distance  VOR name  Freq  Var
PDKr131/27.8PEACHTREE VOR/DME116.6005W
ATLr098/29.3ATLANTA VORTAC116.9005W
AHNr232/33.4ATHENS VOR/DME109.6000E

 
NDB name  Hdg/Dist  Freq  Var  ID
ALCOVY246/3.737003WVOF ...- --- ..-.
MONROE221/10.239204WJNM .--- -. --
BARROW COUNTY218/23.840405WBMW -... -- .--
COMMERCE217/32.124406WDDA -.. -.. .-
FLOWERY BRANCH178/36.236503WFKV ..-. -.- ...-
PECAT066/36.731605WFFC ..-. ..-. -.-.
BULLDOG239/37.722103WBJT -... .--- -

Heliport Services

Runway Information

Helipad H1

Dimensions: 100 x 70 ft. / 30 x 21 m
Surface: turf
Runway edge lights: PERIMETER LGTS.
Latitude: 33-36.108000N
Longitude: 083-50.920833W
Elevation: 772.0 ft.
Traffic pattern: leftleft

Heliport Ownership and Management from official FAA records

Ownership: Privately-owned
Owner: PIEDMONT NEWTON HOSPITAL
5126 HOSPITAL DRIVE
COVINGTON, GA 30014
Phone 404-786-7053
Manager: JAMES F. WEADICK
5126 HOSPITAL DR.
COVINGTON, GA 30014
Phone 770-786-7053
TROY B BROOKS 770-385-4426

Additional Remarks

A52 75' TREES 60' S & 50' BLDG 100' E OF HELIPAD

Instrument Procedures

There are no published instrument procedures at 71GA.

Some nearby airports with instrument procedures:

KCVC - Covington Municipal Airport (2 nm N)
D73 - Monroe-Walton County Airport (13 nm NE)
52A - Madison Municipal Airport (19 nm E)
KLZU - Gwinnett County Airport-Briscoe Field (23 nm N)
KWDR - Barrow County Airport (25 nm N)
 
Loc | Ops | Rwys | IFR | FBO | Links
Com | Nav | Svcs | Stats | Notes

AirNav Hotels Sweepstakes
 
Area around 71GA (Piedmont Newton Hospital Heliport)
 
Road maps at: MapQuest Bing Google
 
Aerial photo
No photo
 
Sectional chart

 
Airport distance calculator
Flying to Piedmont Newton Hospital Heliport? Find the distance to fly.

From to 71GA

Sunrise and sunset
Times for 23-Apr-2018
 Local
(UTC-4)
 Zulu
(UTC)
Morning civil twilight06:3010:30
Sunrise06:5610:56
Sunset20:1100:11
Evening civil twilight20:3700:37

Current date and time
Zulu (UTC)  23-Apr-2018 15:36:20
Local (UTC-4)  23-Apr-2018 11:36:20
 
METAR
KCVC 
2nm N 
231515Z AUTO 11005KT 10SM OVC005 17/16 A3001 RMK AO2 PNO
TAF
KPDK 
28nm NW 
231146Z 2312/2412 10008KT 6SM BR VCSH SCT006 OVC012 TEMPO 2312/2316 OVC006 FM231800 14008KT P6SM VCSH BKN012 FM232200 11005KT P6SM BKN020 FM240400 26005KT P6SM BKN035
KATL 
30nm W 
231345Z 2314/2418 10008KT 6SM BR VCSH SCT006 OVC012 TEMPO 2314/2316 4SM SHRA BR OVC004 FM231800 14008KT P6SM VCSH BKN012 FM232200 11005KT P6SM VCSH BKN020 FM240400 26005KT P6SM BKN035 FM241300 26004KT P6SM BKN015
KAHN 
33nm NE 
231146Z 2312/2412 10012KT 2SM SHRA BR OVC008 FM231600 10010KT 6SM -SHRA BR OVC008 FM240200 09003KT P6SM VCSH OVC008
KFTY 
35nm W 
231146Z 2312/2412 10008KT 6SM BR VCSH SCT006 OVC012 TEMPO 2312/2316 OVC006 FM231800 14008KT P6SM VCSH BKN012 FM232200 11005KT P6SM BKN020 FM240400 26005KT P6SM BKN035
NOTAMs
Click for the latest NOTAMs
NOTAMs are issued by the DoD/FAA and will open in a separate window not controlled by AirNav.

 

 
 

Would you like to see your business listed on this page?

 If your business provides an interesting product or service to pilots, flight crews, aircraft, or users of the Piedmont Newton Hospital Heliport, you should consider listing it here.  To start the listing process, click on the button below
 
Add a business
 

Other Pages about Piedmont Newton Hospital Heliport

Update a link
 
Copyright © AirNav, LLC. All rights reserved. Privacy Policy  Contact